Location: *
(47.8307°S, 178.3954°E)
Time: 07:33:23
(UTC+00:00)

Cosmos 1263 - Pass Details

Date: 12 August 2024
Orbit: 382 x 1261 km, 82.9° (Epoch: 18 September)

Event Time Altitude Azimuth Distance (km) Brightness Sun altitude
Rises 17:14:36 0° 190° (S) 2,834 8.4 -20.3°
Reaches altitude 10° 17:17:01 10° 190° (S) 1,801 7.3 -19.9°
Maximum altitude 17:20:51 86° 278° (W) 470 4.3 -19.2°
Drops below altitude 10° 17:24:03 10° 6° (N) 1,497 7.1 -18.7°
Sets 17:25:54 0° 6° (N) 2,305 8.1 -18.4°
